AFR443 LFPG-LFLB

Flight info

Callsign AFR443
Flight time 0h 51m
Altitude 27000
Route OKASI DCT OKEKO DCT OKIRA DCT MOU DCT FEDZI
Aircraft A319/M-SDE3FGHIRWY/LB1

Departure

Time 2026-04-18 10:43
Airport Charles de Gaulle International Airport (LFPG)

Arrival

Time 2026-04-18 11:35
Airport Chambéry Aix les Bains airport (LFLB)
Time Latitude Longitude Altitude Speed Heading
2026-04-18 09:56 49.00441 2.60107 355 ft 0 kts 264°
2026-04-18 10:30 49.00442 2.60111 354 ft 2 kts 264°
2026-04-18 10:30 49.00444 2.60139 362 ft 3 kts 256°
2026-04-18 10:31 49.00450 2.60167 362 ft 3 kts 237°
2026-04-18 10:31 49.00462 2.60187 364 ft 3 kts 197°
2026-04-18 10:31 49.00471 2.60190 362 ft 0 kts 175°
2026-04-18 10:36 49.00460 2.60191 364 ft 3 kts 176°
2026-04-18 10:36 49.00434 2.60194 361 ft 4 kts 176°
2026-04-18 10:37 49.00395 2.60198 354 ft 6 kts 176°
2026-04-18 10:37 49.00353 2.60193 356 ft 6 kts 213°
2026-04-18 10:37 49.00340 2.60133 354 ft 6 kts 262°
2026-04-18 10:37 49.00336 2.60062 357 ft 7 kts 266°
2026-04-18 10:38 49.00333 2.59984 358 ft 8 kts 266°
2026-04-18 10:38 49.00328 2.59900 354 ft 8 kts 265°
2026-04-18 10:38 49.00323 2.59809 354 ft 9 kts 264°
2026-04-18 10:38 49.00317 2.59711 358 ft 10 kts 264°
2026-04-18 10:39 49.00298 2.59618 359 ft 9 kts 213°
2026-04-18 10:39 49.00234 2.59622 354 ft 9 kts 173°
2026-04-18 10:39 49.00168 2.59629 354 ft 10 kts 175°
2026-04-18 10:39 49.00097 2.59638 354 ft 11 kts 175°
2026-04-18 10:40 49.00022 2.59647 362 ft 11 kts 175°
2026-04-18 10:40 48.99943 2.59656 354 ft 12 kts 175°
2026-04-18 10:40 48.99889 2.59663 356 ft 0 kts 175°
2026-04-18 10:41 48.99885 2.59663 360 ft 3 kts 175°
2026-04-18 10:41 48.99822 2.59649 357 ft 15 kts 217°
2026-04-18 10:42 48.99800 2.59565 359 ft 0 kts 263°
2026-04-18 10:42 48.99800 2.59564 359 ft 0 kts 263°
2026-04-18 10:42 48.99799 2.59556 358 ft 4 kts 263°
2026-04-18 10:43 48.99775 2.59130 356 ft 80 kts 266°
2026-04-18 10:43 48.99710 2.57910 355 ft 144 kts 265°
2026-04-18 10:43 48.99625 2.56271 711 ft 162 kts 266°
2026-04-18 10:43 48.99540 2.54543 1347 ft 165 kts 266°
2026-04-18 10:44 48.99463 2.52760 1916 ft 175 kts 265°
2026-04-18 10:44 48.99363 2.50814 2345 ft 194 kts 264°
2026-04-18 10:44 48.99248 2.48642 2656 ft 221 kts 265°
2026-04-18 10:44 48.99109 2.46182 3141 ft 245 kts 264°
2026-04-18 10:45 48.98951 2.43504 3849 ft 259 kts 264°
2026-04-18 10:45 48.98790 2.40741 4836 ft 263 kts 264°
2026-04-18 10:45 48.98631 2.37951 5846 ft 265 kts 264°
2026-04-18 10:45 48.98474 2.35158 6898 ft 265 kts 265°
2026-04-18 10:46 48.98316 2.32344 7893 ft 266 kts 265°
2026-04-18 10:46 48.98156 2.29531 8872 ft 268 kts 266°
2026-04-18 10:46 48.97995 2.26699 9844 ft 270 kts 266°
2026-04-18 10:46 48.97834 2.23817 10570 ft 280 kts 266°
2026-04-18 10:47 48.97551 2.20763 10920 ft 303 kts 255°
2026-04-18 10:47 48.96588 2.17851 11598 ft 315 kts 235°
2026-04-18 10:47 48.94961 2.15565 12422 ft 325 kts 215°
2026-04-18 10:47 48.92822 2.14330 13235 ft 338 kts 193°
2026-04-18 10:48 48.90436 2.14478 14029 ft 352 kts 170°
2026-04-18 10:48 48.88099 2.15566 14738 ft 357 kts 166°
2026-04-18 10:48 48.85694 2.16747 15465 ft 360 kts 166°
2026-04-18 10:48 48.83337 2.17912 16173 ft 362 kts 166°
2026-04-18 10:49 48.80930 2.19103 16867 ft 365 kts 166°
2026-04-18 10:49 48.78474 2.20308 17575 ft 368 kts 166°
2026-04-18 10:49 48.76057 2.21481 18270 ft 371 kts 166°
2026-04-18 10:49 48.73587 2.22678 18893 ft 374 kts 166°
2026-04-18 10:50 48.71104 2.23909 19497 ft 377 kts 163°
2026-04-18 10:50 48.68725 2.25664 20102 ft 384 kts 152°
2026-04-18 10:50 48.66433 2.27784 20721 ft 387 kts 152°
2026-04-18 10:50 48.64126 2.29907 21322 ft 389 kts 152°
2026-04-18 10:51 48.61801 2.32030 21910 ft 392 kts 152°
2026-04-18 10:51 48.59458 2.34160 22516 ft 395 kts 152°
2026-04-18 10:51 48.57097 2.36306 23111 ft 397 kts 152°
2026-04-18 10:51 48.54724 2.38468 23698 ft 400 kts 152°
2026-04-18 10:52 48.52332 2.40649 24184 ft 403 kts 152°
2026-04-18 10:52 48.49923 2.42846 24641 ft 405 kts 152°
2026-04-18 10:52 48.47507 2.45050 25100 ft 408 kts 152°
2026-04-18 10:52 48.45074 2.47265 25553 ft 410 kts 152°
2026-04-18 10:53 48.42625 2.49490 25992 ft 413 kts 152°
2026-04-18 10:53 48.40158 2.51728 26416 ft 415 kts 152°
2026-04-18 10:53 48.37672 2.53981 26840 ft 418 kts 152°
2026-04-18 10:53 48.35176 2.56244 27123 ft 420 kts 152°
2026-04-18 10:54 48.32653 2.58521 27186 ft 428 kts 152°
2026-04-18 10:54 48.30064 2.60846 27191 ft 440 kts 152°
2026-04-18 10:54 48.27411 2.63208 27189 ft 445 kts 153°
2026-04-18 10:54 48.24702 2.65454 27189 ft 446 kts 155°
2026-04-18 10:55 48.21936 2.67595 27194 ft 446 kts 156°
2026-04-18 10:55 48.19159 2.69657 27180 ft 446 kts 157°
2026-04-18 10:55 48.16373 2.71702 27192 ft 446 kts 156°
2026-04-18 10:55 48.13582 2.73766 27194 ft 447 kts 156°
2026-04-18 10:56 48.10808 2.75845 27194 ft 447 kts 156°
2026-04-18 10:56 48.08024 2.77945 27192 ft 447 kts 156°
2026-04-18 10:56 48.05220 2.79928 27191 ft 446 kts 159°
2026-04-18 10:56 48.02380 2.81785 27189 ft 445 kts 160°
2026-04-18 10:57 47.99517 2.83566 27189 ft 445 kts 160°
2026-04-18 10:57 47.96690 2.85288 27177 ft 445 kts 161°
2026-04-18 10:57 47.93787 2.87059 27175 ft 445 kts 160°
2026-04-18 10:57 47.90965 2.88805 27187 ft 445 kts 160°
2026-04-18 10:58 47.88107 2.90602 27180 ft 446 kts 160°
2026-04-18 10:58 47.85259 2.92408 27185 ft 446 kts 160°
2026-04-18 10:58 47.82405 2.94224 27177 ft 446 kts 160°
2026-04-18 10:58 47.79556 2.96035 27173 ft 446 kts 159°
2026-04-18 10:59 47.76700 2.97845 27175 ft 446 kts 159°
2026-04-18 10:59 47.73840 2.99647 27166 ft 446 kts 159°
2026-04-18 10:59 47.70972 3.01449 27168 ft 447 kts 159°
2026-04-18 10:59 47.68104 3.03244 27173 ft 447 kts 160°
2026-04-18 11:00 47.65240 3.05037 27174 ft 447 kts 159°
2026-04-18 11:00 47.62371 3.06832 27173 ft 447 kts 159°
2026-04-18 11:00 47.59497 3.08628 27176 ft 447 kts 160°
2026-04-18 11:00 47.56624 3.10420 27176 ft 448 kts 160°
2026-04-18 11:01 47.53754 3.12208 27168 ft 448 kts 159°
2026-04-18 11:01 47.50881 3.14003 27168 ft 448 kts 159°
2026-04-18 11:01 47.48230 3.15657 27174 ft 448 kts 159°
2026-04-18 11:02 47.42499 3.19225 26995 ft 454 kts 159°
2026-04-18 11:02 47.39597 3.21030 27160 ft 451 kts 159°
2026-04-18 11:02 47.36701 3.22826 27203 ft 451 kts 160°
2026-04-18 11:02 47.33812 3.24617 27190 ft 450 kts 159°
2026-04-18 11:03 47.30921 3.26404 27199 ft 451 kts 159°
2026-04-18 11:03 47.28016 3.28192 27195 ft 452 kts 160°
2026-04-18 11:03 47.25111 3.29980 27193 ft 452 kts 159°
2026-04-18 11:03 47.22210 3.31768 27193 ft 452 kts 159°
2026-04-18 11:04 47.20284 3.32955 27201 ft 452 kts 159°
2026-04-18 11:04 47.16405 3.35343 27193 ft 452 kts 159°
2026-04-18 11:04 47.13505 3.37127 27192 ft 452 kts 159°
2026-04-18 11:04 47.10598 3.38908 27184 ft 452 kts 159°
2026-04-18 11:05 47.08679 3.40082 27181 ft 452 kts 159°
2026-04-18 11:05 47.05771 3.41863 27177 ft 452 kts 159°
2026-04-18 11:05 47.01927 3.44215 27177 ft 452 kts 159°
2026-04-18 11:05 46.99023 3.45986 27177 ft 452 kts 159°
2026-04-18 11:06 46.97057 3.47182 27177 ft 452 kts 159°
2026-04-18 11:06 46.93212 3.49520 27176 ft 452 kts 159°
2026-04-18 11:06 46.91249 3.50714 27165 ft 452 kts 159°
2026-04-18 11:06 46.88342 3.52482 27165 ft 452 kts 159°
2026-04-18 11:07 46.85440 3.54248 27166 ft 453 kts 159°
2026-04-18 11:07 46.82529 3.56017 27169 ft 453 kts 159°
2026-04-18 11:07 46.79653 3.57758 27170 ft 454 kts 159°
2026-04-18 11:07 46.76698 3.59540 27171 ft 454 kts 159°
2026-04-18 11:08 46.73821 3.61273 27173 ft 454 kts 159°
2026-04-18 11:08 46.70896 3.63031 27173 ft 454 kts 159°
2026-04-18 11:08 46.67968 3.64754 27176 ft 454 kts 160°
2026-04-18 11:08 46.65022 3.66419 27176 ft 454 kts 161°
2026-04-18 11:09 46.62066 3.68050 27179 ft 454 kts 161°
2026-04-18 11:09 46.59104 3.69665 27175 ft 454 kts 161°
2026-04-18 11:09 46.56144 3.71280 27182 ft 454 kts 161°
2026-04-18 11:09 46.53186 3.72906 27077 ft 455 kts 161°
2026-04-18 11:10 46.50228 3.74541 26597 ft 453 kts 161°
2026-04-18 11:10 46.47284 3.76175 25823 ft 452 kts 161°
2026-04-18 11:10 46.44353 3.77804 25096 ft 449 kts 161°
2026-04-18 11:10 46.41458 3.79476 24379 ft 448 kts 157°
2026-04-18 11:11 46.38755 3.81729 23654 ft 448 kts 146°
2026-04-18 11:11 46.36385 3.84645 22917 ft 447 kts 135°
2026-04-18 11:11 46.34427 3.88109 22457 ft 445 kts 125°
2026-04-18 11:11 46.32881 3.91979 21932 ft 443 kts 118°
2026-04-18 11:12 46.31462 3.95915 21414 ft 440 kts 118°
2026-04-18 11:12 46.30069 3.99776 20914 ft 437 kts 117°
2026-04-18 11:12 46.28669 4.03655 20379 ft 434 kts 117°
2026-04-18 11:12 46.27278 4.07501 19875 ft 430 kts 117°
2026-04-18 11:13 46.25894 4.11319 19365 ft 427 kts 117°
2026-04-18 11:13 46.24518 4.15111 18869 ft 425 kts 117°
2026-04-18 11:13 46.23152 4.18871 18359 ft 422 kts 117°
2026-04-18 11:13 46.21792 4.22609 17836 ft 418 kts 117°
2026-04-18 11:14 46.20442 4.26319 17349 ft 415 kts 117°
2026-04-18 11:14 46.19103 4.29986 16863 ft 412 kts 117°
2026-04-18 11:14 46.17771 4.33624 16379 ft 409 kts 117°
2026-04-18 11:14 46.16452 4.37239 15903 ft 405 kts 116°
2026-04-18 11:15 46.15448 4.41010 15425 ft 401 kts 104°
2026-04-18 11:15 46.14985 4.44936 15026 ft 395 kts 92°
2026-04-18 11:15 46.15053 4.48880 14935 ft 393 kts 81°
2026-04-18 11:15 46.15442 4.52779 14794 ft 392 kts 79°
2026-04-18 11:16 46.15830 4.56653 14638 ft 391 kts 80°
2026-04-18 11:16 46.16215 4.60539 14475 ft 390 kts 80°
2026-04-18 11:16 46.16596 4.64412 14325 ft 389 kts 80°
2026-04-18 11:16 46.16977 4.68275 14164 ft 388 kts 80°
2026-04-18 11:17 46.17357 4.72115 14010 ft 387 kts 80°
2026-04-18 11:17 46.17734 4.75908 13846 ft 386 kts 80°
2026-04-18 11:17 46.18115 4.79728 13689 ft 385 kts 80°
2026-04-18 11:17 46.18496 4.83562 13530 ft 385 kts 81°
2026-04-18 11:18 46.18870 4.87379 13378 ft 384 kts 81°
2026-04-18 11:18 46.19238 4.91195 13230 ft 383 kts 81°
2026-04-18 11:18 46.19603 4.94978 13063 ft 382 kts 81°
2026-04-18 11:18 46.19974 4.98783 12910 ft 381 kts 81°
2026-04-18 11:19 46.20342 5.02557 12746 ft 376 kts 81°
2026-04-18 11:19 46.20695 5.06218 12618 ft 360 kts 81°
2026-04-18 11:19 46.21031 5.09720 12488 ft 346 kts 81°
2026-04-18 11:19 46.21352 5.13101 12362 ft 333 kts 81°
2026-04-18 11:20 46.21660 5.16353 12232 ft 321 kts 81°
2026-04-18 11:20 46.21958 5.19495 12106 ft 310 kts 81°
2026-04-18 11:20 46.22234 5.22537 11979 ft 301 kts 85°
2026-04-18 11:20 46.22100 5.25489 11851 ft 291 kts 103°
2026-04-18 11:21 46.21415 5.28186 11733 ft 282 kts 116°
2026-04-18 11:21 46.20593 5.30708 11562 ft 275 kts 115°
2026-04-18 11:21 46.19779 5.33184 11468 ft 271 kts 118°
2026-04-18 11:21 46.18598 5.35208 11351 ft 268 kts 147°
2026-04-18 11:22 46.16891 5.36172 11235 ft 264 kts 176°
2026-04-18 11:22 46.15110 5.35853 11121 ft 258 kts 204°
2026-04-18 11:22 46.13468 5.34784 10997 ft 259 kts 206°
2026-04-18 11:22 46.11739 5.34072 10877 ft 261 kts 186°
2026-04-18 11:23 46.09929 5.34294 10763 ft 262 kts 165°
2026-04-18 11:23 46.08294 5.35436 10649 ft 263 kts 144°
2026-04-18 11:23 46.06819 5.37010 10552 ft 263 kts 144°
2026-04-18 11:23 46.05342 5.38573 10451 ft 264 kts 145°
2026-04-18 11:24 46.03860 5.40129 10329 ft 264 kts 145°
2026-04-18 11:24 46.02377 5.41684 10232 ft 263 kts 145°
2026-04-18 11:24 46.00901 5.43232 10128 ft 261 kts 144°
2026-04-18 11:24 45.99454 5.44754 10018 ft 261 kts 144°
2026-04-18 11:25 45.97991 5.46294 9902 ft 261 kts 144°
2026-04-18 11:25 45.96508 5.47853 9800 ft 261 kts 144°
2026-04-18 11:25 45.95044 5.49387 9687 ft 260 kts 144°
2026-04-18 11:25 45.93601 5.50896 9586 ft 259 kts 144°
2026-04-18 11:26 45.92143 5.52420 9482 ft 258 kts 144°
2026-04-18 11:26 45.90692 5.53937 9372 ft 257 kts 144°
2026-04-18 11:26 45.89258 5.55466 9266 ft 256 kts 140°
2026-04-18 11:26 45.88143 5.57383 9161 ft 246 kts 119°
2026-04-18 11:27 45.87540 5.59652 8812 ft 246 kts 101°
2026-04-18 11:27 45.87305 5.62094 8402 ft 249 kts 97°
2026-04-18 11:27 45.87072 5.64568 8003 ft 251 kts 98°
2026-04-18 11:27 45.86831 5.67053 7616 ft 252 kts 98°
2026-04-18 11:28 45.86585 5.69540 7229 ft 252 kts 98°
2026-04-18 11:28 45.86341 5.72003 6869 ft 245 kts 98°
2026-04-18 11:28 45.86110 5.74334 6793 ft 225 kts 98°
2026-04-18 11:28 45.85900 5.76454 6745 ft 207 kts 98°
2026-04-18 11:29 45.85741 5.78476 6536 ft 202 kts 89°
2026-04-18 11:29 45.85818 5.80483 6243 ft 200 kts 86°
2026-04-18 11:29 45.85896 5.82430 5994 ft 193 kts 86°
2026-04-18 11:29 45.85900 5.84309 5853 ft 183 kts 101°
2026-04-18 11:30 45.85278 5.85776 5770 ft 167 kts 141°
2026-04-18 11:30 45.84240 5.86338 5649 ft 159 kts 174°
2026-04-18 11:30 45.83161 5.86424 5517 ft 156 kts 175°
2026-04-18 11:30 45.82085 5.86512 5374 ft 154 kts 175°
2026-04-18 11:31 45.81014 5.86601 5242 ft 154 kts 175°
2026-04-18 11:31 45.79944 5.86695 5122 ft 155 kts 175°
2026-04-18 11:31 45.78867 5.86786 4889 ft 157 kts 175°
2026-04-18 11:31 45.77773 5.86878 4599 ft 159 kts 175°
2026-04-18 11:32 45.76649 5.86970 4262 ft 162 kts 175°
2026-04-18 11:32 45.75525 5.87063 3955 ft 161 kts 176°
2026-04-18 11:32 45.74410 5.87154 3634 ft 161 kts 176°
2026-04-18 11:32 45.73294 5.87246 3329 ft 160 kts 177°
2026-04-18 11:33 45.72183 5.87337 3010 ft 159 kts 177°
2026-04-18 11:33 45.71077 5.87427 2701 ft 159 kts 178°
2026-04-18 11:33 45.69996 5.87516 2372 ft 152 kts 178°
2026-04-18 11:33 45.68968 5.87600 2074 ft 145 kts 178°
2026-04-18 11:34 45.67972 5.87675 1763 ft 141 kts 178°
2026-04-18 11:34 45.67020 5.87757 1482 ft 137 kts 177°
2026-04-18 11:34 45.66075 5.87833 1220 ft 135 kts 177°
2026-04-18 11:34 45.65143 5.87908 1000 ft 134 kts 178°
2026-04-18 11:35 45.64220 5.87988 787 ft 127 kts 176°
2026-04-18 11:35 45.63595 5.88034 783 ft 47 kts 176°
2026-04-18 11:35 45.63413 5.88051 783 ft 22 kts 175°
2026-04-18 11:35 45.63266 5.88065 784 ft 20 kts 176°
2026-04-18 11:36 45.63154 5.88107 785 ft 14 kts 115°
2026-04-18 11:36 45.63169 5.88243 784 ft 15 kts 50°
2026-04-18 11:36 45.63243 5.88272 783 ft 11 kts 358°
2026-04-18 11:36 45.63324 5.88267 783 ft 12 kts 356°
2026-04-18 11:37 45.63410 5.88259 783 ft 13 kts 356°
2026-04-18 11:37 45.63503 5.88251 783 ft 14 kts 356°
2026-04-18 11:37 45.63600 5.88245 783 ft 14 kts 357°
2026-04-18 11:37 45.63703 5.88235 783 ft 15 kts 356°
2026-04-18 11:38 45.63774 5.88235 783 ft 5 kts 24°
2026-04-18 11:38 45.63780 5.88278 783 ft 5 kts 87°
2026-04-18 11:38 45.63781 5.88303 783 ft 0 kts 86°